Time,TemperatureF,DewpointF,PressureIn,WindDirection,WindDirectionDegrees,WindSpeedMPH,WindSpeedGustMPH,Humidity,HourlyPrecipIn,Conditions,Clouds,dailyrainin,SoftwareType,DateUTC
2013-02-27 00:02:00,18.0,16.0,30.03,North,-999,-999.0,-999.0,92,-99.99,,,-99.99,,2013-02-27 06:02:00,
2013-02-27 00:11:00,18.0,14.0,30.03,North,-999,-999.0,-999.0,85,-99.99,,,-99.99,,2013-02-27 06:11:00,
2013-02-27 00:21:00,18.0,14.0,30.03,North,-999,-999.0,-999.0,85,-99.99,,,-99.99,,2013-02-27 06:21:00,
2013-02-27 00:33:00,18.0,14.0,30.03,North,-999,-999.0,-999.0,85,-99.99,,,-99.99,,2013-02-27 06:33:00,
2013-02-27 00:41:00,18.0,14.0,30.03,North,-999,-999.0,-999.0,85,-99.99,,,-99.99,,2013-02-27 06:41:00,
2013-02-27 00:52:00,18.0,14.0,30.03,North,-999,-999.0,-999.0,85,-99.99,,,-99.99,,2013-02-27 06:52:00,
2013-02-27 01:01:00,18.0,14.0,30.03,North,-999,-999.0,-999.0,85,-99.99,,,-99.99,,2013-02-27 07:01:00,
2013-02-27 01:12:00,18.0,14.0,30.03,North,-999,-999.0,-999.0,85,-99.99,,,-99.99,,2013-02-27 07:12:00,
2013-02-27 01:21:00,16.0,10.0,30.03,North,-999,-999.0,-999.0,78,-99.99,,,-99.99,,2013-02-27 07:21:00,
2013-02-27 01:32:00,16.0,10.0,30.03,North,-999,-999.0,-999.0,78,-99.99,,,-99.99,,2013-02-27 07:32:00,
2013-02-27 01:42:00,16.0,10.0,30.03,North,-999,-999.0,-999.0,78,-99.99,,,-99.99,,2013-02-27 07:42:00,
2013-02-27 01:51:00,14.0,10.0,30.03,North,-999,-999.0,-999.0,85,-99.99,,,-99.99,,2013-02-27 07:51:00,
2013-02-27 02:01:00,14.0,10.0,30.03,North,-999,-999.0,-999.0,85,-99.99,,,-99.99,,2013-02-27 08:01:00,
2013-02-27 02:11:00,14.0,10.0,30.03,North,-999,-999.0,-999.0,85,-99.99,,,-99.99,,2013-02-27 08:11:00,
2013-02-27 02:21:00,14.0,10.0,30.03,North,-999,-999.0,-999.0,85,-99.99,,,-99.99,,2013-02-27 08:21:00,
2013-02-27 02:32:00,14.0,10.0,30.03,North,-999,-999.0,-999.0,85,-99.99,,,-99.99,,2013-02-27 08:32:00,
2013-02-27 02:42:00,14.0,10.0,30.03,North,-999,-999.0,-999.0,85,-99.99,,,-99.99,,2013-02-27 08:42:00,
2013-02-27 02:52:00,12.0,9.0,30.03,North,-999,-999.0,-999.0,85,-99.99,,,-99.99,,2013-02-27 08:52:00,
2013-02-27 03:02:00,12.0,9.0,30.03,North,-999,-999.0,-999.0,85,-99.99,,,-99.99,,2013-02-27 09:02:00,
2013-02-27 03:12:00,12.0,9.0,30.03,North,-999,-999.0,-999.0,85,-99.99,,,-99.99,,2013-02-27 09:12:00,
2013-02-27 03:22:00,12.0,9.0,30.03,North,-999,-999.0,-999.0,85,-99.99,,,-99.99,,2013-02-27 09:22:00,
2013-02-27 03:32:00,12.0,9.0,30.03,North,-999,-999.0,-999.0,85,-99.99,,,-99.99,,2013-02-27 09:32:00,
2013-02-27 03:52:00,14.0,10.0,30.02,North,-999,-999.0,-999.0,85,-99.99,,,-99.99,,2013-02-27 09:52:00,
2013-02-27 04:01:00,14.0,10.0,30.02,North,-999,-999.0,-999.0,85,-99.99,,,-99.99,,2013-02-27 10:01:00,
2013-02-27 04:12:00,14.0,10.0,30.02,North,-999,-999.0,-999.0,85,-99.99,,,-99.99,,2013-02-27 10:12:00,
2013-02-27 04:22:00,14.0,10.0,30.02,North,-999,-999.0,-999.0,85,-99.99,,,-99.99,,2013-02-27 10:22:00,
2013-02-27 04:32:00,16.0,12.0,30.02,North,-999,-999.0,-999.0,85,-99.99,,,-99.99,,2013-02-27 10:32:00,
2013-02-27 04:42:00,16.0,12.0,30.02,North,-999,-999.0,-999.0,85,-99.99,,,-99.99,,2013-02-27 10:42:00,
2013-02-27 04:53:00,16.0,12.0,30.01,North,-999,-999.0,-999.0,85,-99.99,,,-99.99,,2013-02-27 10:53:00,
2013-02-27 05:02:00,16.0,12.0,30.01,North,-999,-999.0,-999.0,85,-99.99,,,-99.99,,2013-02-27 11:02:00,
2013-02-27 05:12:00,16.0,12.0,30.02,North,-999,-999.0,-999.0,85,-99.99,,,-99.99,,2013-02-27 11:12:00,
2013-02-27 05:22:00,16.0,12.0,30.02,North,-999,-999.0,-999.0,85,-99.99,,,-99.99,,2013-02-27 11:22:00,
2013-02-27 05:32:00,16.0,12.0,30.02,North,-999,-999.0,-999.0,85,-99.99,,,-99.99,,2013-02-27 11:32:00,
2013-02-27 05:42:00,16.0,12.0,30.02,North,-999,-999.0,-999.0,85,-99.99,,,-99.99,,2013-02-27 11:42:00,
2013-02-27 05:52:00,16.0,12.0,30.02,North,-999,-999.0,-999.0,85,-99.99,,,-99.99,,2013-02-27 11:52:00,
2013-02-27 06:33:00,18.0,14.0,30.04,North,-999,-999.0,-999.0,85,-99.99,,,-99.99,,2013-02-27 12:33:00,
2013-02-27 06:42:00,18.0,14.0,30.04,North,-999,-999.0,-999.0,85,-99.99,,,-99.99,,2013-02-27 12:42:00,
2013-02-27 06:52:00,18.0,14.0,30.04,North,-999,-999.0,-999.0,85,-99.99,,,-99.99,,2013-02-27 12:52:00,
2013-02-27 07:02:00,18.0,14.0,30.04,North,-999,-999.0,-999.0,85,-99.99,,,-99.99,,2013-02-27 13:02:00,
2013-02-27 07:11:00,18.0,14.0,30.04,North,-999,-999.0,-999.0,85,-99.99,,,-99.99,,2013-02-27 13:11:00,
2013-02-27 07:32:00,18.0,12.0,30.05,North,-999,-999.0,-999.0,78,-99.99,,,-99.99,,2013-02-27 13:32:00,
2013-02-27 07:42:00,18.0,12.0,30.05,North,-999,-999.0,-999.0,78,-99.99,,,-99.99,,2013-02-27 13:42:00,
2013-02-27 07:52:00,18.0,12.0,30.07,North,-999,-999.0,-999.0,78,-99.99,,,-99.99,,2013-02-27 13:52:00,
2013-02-27 08:02:00,18.0,12.0,30.07,North,-999,-999.0,-999.0,78,-99.99,,,-99.99,,2013-02-27 14:02:00,
2013-02-27 08:12:00,18.0,12.0,30.07,North,-999,-999.0,-999.0,78,-99.99,,,-99.99,,2013-02-27 14:12:00,
2013-02-27 08:22:00,18.0,12.0,30.07,North,-999,-999.0,-999.0,78,-99.99,,,-99.99,,2013-02-27 14:22:00,
2013-02-27 08:32:00,18.0,12.0,30.07,North,-999,-999.0,-999.0,78,-99.99,,,-99.99,,2013-02-27 14:32:00,
2013-02-27 08:42:00,18.0,12.0,30.07,North,-999,-999.0,-999.0,78,-99.99,,,-99.99,,2013-02-27 14:42:00,
2013-02-27 08:52:00,18.0,14.0,30.08,North,-999,-999.0,-999.0,85,-99.99,,,-99.99,,2013-02-27 14:52:00,
2013-02-27 09:02:00,18.0,14.0,30.08,North,-999,-999.0,-999.0,85,-99.99,,,-99.99,,2013-02-27 15:02:00,
2013-02-27 09:12:00,18.0,14.0,30.08,North,-999,-999.0,-999.0,85,-99.99,,,-99.99,,2013-02-27 15:12:00,
2013-02-27 09:22:00,18.0,14.0,30.08,North,-999,-999.0,-999.0,85,-99.99,,,-99.99,,2013-02-27 15:22:00,
2013-02-27 09:32:00,18.0,14.0,30.08,North,-999,-999.0,-999.0,85,-99.99,,,-99.99,,2013-02-27 15:32:00,
2013-02-27 09:52:00,19.0,16.0,30.09,North,-999,-999.0,-999.0,85,-99.99,,,-99.99,,2013-02-27 15:52:00,
2013-02-27 10:02:00,19.0,16.0,30.09,North,-999,-999.0,-999.0,85,-99.99,,,-99.99,,2013-02-27 16:02:00,
2013-02-27 10:12:00,19.0,14.0,30.09,North,-999,-999.0,-999.0,79,-99.99,,,-99.99,,2013-02-27 16:12:00,
2013-02-27 10:22:00,19.0,14.0,30.09,North,-999,-999.0,-999.0,79,-99.99,,,-99.99,,2013-02-27 16:22:00,
2013-02-27 10:32:00,19.0,16.0,30.08,North,-999,-999.0,-999.0,85,-99.99,,,-99.99,,2013-02-27 16:32:00,
2013-02-27 10:42:00,19.0,16.0,30.08,North,-999,-999.0,-999.0,85,-99.99,,,-99.99,,2013-02-27 16:42:00,
2013-02-27 10:52:00,21.0,16.0,30.09,North,-999,-999.0,-999.0,79,-99.99,,,-99.99,,2013-02-27 16:52:00,
2013-02-27 11:02:00,21.0,16.0,30.09,North,-999,-999.0,-999.0,79,-99.99,,,-99.99,,2013-02-27 17:02:00,
2013-02-27 11:11:00,21.0,16.0,30.09,North,-999,-999.0,-999.0,79,-99.99,,,-99.99,,2013-02-27 17:11:00,
2013-02-27 11:21:00,21.0,16.0,30.09,North,-999,-999.0,-999.0,79,-99.99,,,-99.99,,2013-02-27 17:21:00,
2013-02-27 11:32:00,21.0,16.0,30.09,North,-999,-999.0,-999.0,79,-99.99,,,-99.99,,2013-02-27 17:32:00,
2013-02-27 11:42:00,21.0,16.0,30.09,North,-999,-999.0,-999.0,79,-99.99,,,-99.99,,2013-02-27 17:42:00,
2013-02-27 11:52:00,21.0,16.0,30.09,North,-999,-999.0,-999.0,79,-99.99,,,-99.99,,2013-02-27 17:52:00,
2013-02-27 12:01:00,21.0,16.0,30.09,North,-999,-999.0,-999.0,79,-99.99,,,-99.99,,2013-02-27 18:01:00,
2013-02-27 12:11:00,21.0,16.0,30.09,North,-999,-999.0,-999.0,79,-99.99,,,-99.99,,2013-02-27 18:11:00,
2013-02-27 12:32:00,23.0,18.0,30.10,North,-999,-999.0,-999.0,79,-99.99,,,-99.99,,2013-02-27 18:32:00,
2013-02-27 12:42:00,23.0,18.0,30.10,North,-999,-999.0,-999.0,79,-99.99,,,-99.99,,2013-02-27 18:42:00,
2013-02-27 12:52:00,23.0,18.0,30.10,North,-999,-999.0,-999.0,79,-99.99,,,-99.99,,2013-02-27 18:52:00,
2013-02-27 13:01:00,23.0,18.0,30.10,North,-999,-999.0,-999.0,79,-99.99,,,-99.99,,2013-02-27 19:01:00,
2013-02-27 13:11:00,23.0,18.0,30.09,North,-999,-999.0,-999.0,79,-99.99,,,-99.99,,2013-02-27 19:11:00,
2013-02-27 13:21:00,23.0,18.0,30.09,North,-999,-999.0,-999.0,79,-99.99,,,-99.99,,2013-02-27 19:21:00,
2013-02-27 13:32:00,25.0,18.0,30.09,North,-999,-999.0,-999.0,73,-99.99,,,-99.99,,2013-02-27 19:32:00,
2013-02-27 13:42:00,25.0,18.0,30.09,North,-999,-999.0,-999.0,73,-99.99,,,-99.99,,2013-02-27 19:42:00,
2013-02-27 13:52:00,25.0,18.0,30.08,North,-999,-999.0,-999.0,73,-99.99,,,-99.99,,2013-02-27 19:52:00,
2013-02-27 14:01:00,25.0,18.0,30.08,North,-999,-999.0,-999.0,73,-99.99,,,-99.99,,2013-02-27 20:01:00,
2013-02-27 14:12:00,25.0,18.0,30.08,North,-999,-999.0,-999.0,73,-99.99,,,-99.99,,2013-02-27 20:12:00,
2013-02-27 14:21:00,25.0,19.0,30.08,North,-999,-999.0,-999.0,79,-99.99,,,-99.99,,2013-02-27 20:21:00,
2013-02-27 14:32:00,25.0,18.0,30.08,North,-999,-999.0,-999.0,73,-99.99,,,-99.99,,2013-02-27 20:32:00,
2013-02-27 14:42:00,25.0,18.0,30.08,North,-999,-999.0,-999.0,73,-99.99,,,-99.99,,2013-02-27 20:42:00,
2013-02-27 14:52:00,25.0,18.0,30.08,North,-999,-999.0,-999.0,73,-99.99,,,-99.99,,2013-02-27 20:52:00,
2013-02-27 15:02:00,25.0,18.0,30.08,North,-999,-999.0,-999.0,73,-99.99,,,-99.99,,2013-02-27 21:02:00,
2013-02-27 15:11:00,25.0,18.0,30.08,North,-999,-999.0,-999.0,73,-99.99,,,-99.99,,2013-02-27 21:11:00,
2013-02-27 15:22:00,25.0,18.0,30.08,North,-999,-999.0,-999.0,73,-99.99,,,-99.99,,2013-02-27 21:22:00,
2013-02-27 15:32:00,25.0,18.0,30.08,North,-999,-999.0,-999.0,73,-99.99,,,-99.99,,2013-02-27 21:32:00,
2013-02-27 15:42:00,25.0,18.0,30.08,North,-999,-999.0,-999.0,73,-99.99,,,-99.99,,2013-02-27 21:42:00,
2013-02-27 15:51:00,25.0,19.0,30.08,North,-999,-999.0,-999.0,79,-99.99,,,-99.99,,2013-02-27 21:51:00,
2013-02-27 16:01:00,25.0,19.0,30.08,North,-999,-999.0,-999.0,79,-99.99,,,-99.99,,2013-02-27 22:01:00,
2013-02-27 16:11:00,25.0,19.0,30.08,North,-999,-999.0,-999.0,79,-99.99,,,-99.99,,2013-02-27 22:11:00,
2013-02-27 16:21:00,25.0,19.0,30.08,North,-999,-999.0,-999.0,79,-99.99,,,-99.99,,2013-02-27 22:21:00,
2013-02-27 16:31:00,27.0,21.0,30.08,North,-999,-999.0,-999.0,79,-99.99,,,-99.99,,2013-02-27 22:31:00,
2013-02-27 16:42:00,27.0,21.0,30.08,North,-999,-999.0,-999.0,79,-99.99,,,-99.99,,2013-02-27 22:42:00,
2013-02-27 16:51:00,27.0,21.0,30.09,North,-999,-999.0,-999.0,79,-99.99,,,-99.99,,2013-02-27 22:51:00,
2013-02-27 17:01:00,27.0,21.0,30.09,North,-999,-999.0,-999.0,79,-99.99,,,-99.99,,2013-02-27 23:01:00,
2013-02-27 17:11:00,27.0,21.0,30.08,North,-999,-999.0,-999.0,79,-99.99,,,-99.99,,2013-02-27 23:11:00,
2013-02-27 17:21:00,27.0,21.0,30.08,North,-999,-999.0,-999.0,79,-99.99,,,-99.99,,2013-02-27 23:21:00,
2013-02-27 17:32:00,27.0,21.0,30.09,North,-999,-999.0,-999.0,79,-99.99,,,-99.99,,2013-02-27 23:32:00,
2013-02-27 17:42:00,27.0,21.0,30.09,North,-999,-999.0,-999.0,79,-99.99,,,-99.99,,2013-02-27 23:42:00,
2013-02-27 17:52:00,27.0,21.0,30.09,North,-999,-999.0,-999.0,79,-99.99,,,-99.99,,2013-02-27 23:52:00,
2013-02-27 18:02:00,27.0,21.0,30.09,North,-999,-999.0,-999.0,79,-99.99,,,-99.99,,2013-02-28 00:02:00,
2013-02-27 18:12:00,27.0,21.0,30.10,North,-999,-999.0,-999.0,79,-99.99,,,-99.99,,2013-02-28 00:12:00,
2013-02-27 18:21:00,27.0,21.0,30.10,North,-999,-999.0,-999.0,79,-99.99,,,-99.99,,2013-02-28 00:21:00,
2013-02-27 18:32:00,27.0,21.0,30.10,North,-999,-999.0,-999.0,79,-99.99,,,-99.99,,2013-02-28 00:32:00,
2013-02-27 18:42:00,27.0,21.0,30.10,North,-999,-999.0,-999.0,79,-99.99,,,-99.99,,2013-02-28 00:42:00,
2013-02-27 18:51:00,27.0,21.0,30.10,North,-999,-999.0,-999.0,79,-99.99,,,-99.99,,2013-02-28 00:51:00,
2013-02-27 19:01:00,27.0,21.0,30.10,North,-999,-999.0,-999.0,79,-99.99,,,-99.99,,2013-02-28 01:01:00,
2013-02-27 19:11:00,27.0,21.0,30.10,North,-999,-999.0,-999.0,79,-99.99,,,-99.99,,2013-02-28 01:11:00,
2013-02-27 19:32:00,27.0,21.0,30.11,North,-999,-999.0,-999.0,79,-99.99,,,-99.99,,2013-02-28 01:32:00,
2013-02-27 19:42:00,27.0,21.0,30.11,North,-999,-999.0,-999.0,79,-99.99,,,-99.99,,2013-02-28 01:42:00,
2013-02-27 19:52:00,27.0,21.0,30.11,North,-999,-999.0,-999.0,79,-99.99,,,-99.99,,2013-02-28 01:52:00,
2013-02-27 20:01:00,27.0,21.0,30.11,North,-999,-999.0,-999.0,79,-99.99,,,-99.99,,2013-02-28 02:01:00,
2013-02-27 20:11:00,27.0,21.0,30.12,North,-999,-999.0,-999.0,79,-99.99,,,-99.99,,2013-02-28 02:11:00,
2013-02-27 20:22:00,27.0,21.0,30.12,North,-999,-999.0,-999.0,79,-99.99,,,-99.99,,2013-02-28 02:22:00,
2013-02-27 20:31:00,25.0,21.0,30.11,North,-999,-999.0,-999.0,85,-99.99,,,-99.99,,2013-02-28 02:31:00,
2013-02-27 20:41:00,25.0,21.0,30.11,North,-999,-999.0,-999.0,85,-99.99,,,-99.99,,2013-02-28 02:41:00,
2013-02-27 20:51:00,25.0,21.0,30.11,North,-999,-999.0,-999.0,85,-99.99,,,-99.99,,2013-02-28 02:51:00,
2013-02-27 21:01:00,25.0,21.0,30.11,North,-999,-999.0,-999.0,85,-99.99,,,-99.99,,2013-02-28 03:01:00,
2013-02-27 21:11:00,25.0,21.0,30.11,North,-999,-999.0,-999.0,85,-99.99,,,-99.99,,2013-02-28 03:11:00,
2013-02-27 21:21:00,25.0,19.0,30.13,North,-999,-999.0,-999.0,79,-99.99,,,-99.99,,2013-02-28 03:21:00,
2013-02-27 21:32:00,25.0,19.0,30.13,North,-999,-999.0,-999.0,79,-99.99,,,-99.99,,2013-02-28 03:32:00,
2013-02-27 21:42:00,25.0,19.0,30.13,North,-999,-999.0,-999.0,79,-99.99,,,-99.99,,2013-02-28 03:42:00,
2013-02-27 21:52:00,25.0,19.0,30.14,North,-999,-999.0,-999.0,79,-99.99,,,-99.99,,2013-02-28 03:52:00,
2013-02-27 22:02:00,25.0,19.0,30.14,North,-999,-999.0,-999.0,79,-99.99,,,-99.99,,2013-02-28 04:02:00,
2013-02-27 22:11:00,25.0,19.0,30.14,North,-999,-999.0,-999.0,79,-99.99,,,-99.99,,2013-02-28 04:11:00,
2013-02-27 22:21:00,25.0,19.0,30.14,North,-999,-999.0,-999.0,79,-99.99,,,-99.99,,2013-02-28 04:21:00,
2013-02-27 22:32:00,23.0,19.0,30.14,North,-999,-999.0,-999.0,85,-99.99,,,-99.99,,2013-02-28 04:32:00,
2013-02-27 22:42:00,23.0,19.0,30.14,North,-999,-999.0,-999.0,85,-99.99,,,-99.99,,2013-02-28 04:42:00,
2013-02-27 22:51:00,23.0,19.0,30.13,North,-999,-999.0,-999.0,85,-99.99,,,-99.99,,2013-02-28 04:51:00,
2013-02-27 23:01:00,23.0,19.0,30.13,North,-999,-999.0,-999.0,85,-99.99,,,-99.99,,2013-02-28 05:01:00,
2013-02-27 23:11:00,23.0,19.0,30.13,North,-999,-999.0,-999.0,85,-99.99,,,-99.99,,2013-02-28 05:11:00,
2013-02-27 23:22:00,23.0,19.0,30.13,North,-999,-999.0,-999.0,85,-99.99,,,-99.99,,2013-02-28 05:22:00,
2013-02-27 23:31:00,21.0,18.0,30.14,North,-999,-999.0,-999.0,85,-99.99,,,-99.99,,2013-02-28 05:31:00,
2013-02-27 23:43:00,21.0,18.0,30.14,North,-999,-999.0,-999.0,85,-99.99,,,-99.99,,2013-02-28 05:43:00,
2013-02-27 23:52:00,21.0,18.0,30.14,North,-999,-999.0,-999.0,85,-99.99,,,-99.99,,2013-02-28 05:52:00,